owner,sensor,date,latitude,longitude,vertical_datum,wind_speed,wind_to_direction,wind_speed_of_gust,qcFlag 
NDBC,ioos:station:NOAA.NDBC:VENF1:1,2010-01-09T23:00:00Z,27.0720,-82.4530,11.6,10.8,10.0,,'1111122,1111122,1111122' 
NDBC,ioos:station:NOAA.NDBC:VENF1:1,2010-01-10T00:00:00Z,27.0720,-82.4530,11.6,9.3,20.0,,'1111122,1111122,1111122' 
NDBC,ioos:station:NOAA.NDBC:VENF1:1,2010-01-10T01:00:00Z,27.0720,-82.4530,11.6,9.8,10.0,,'1111122,1111122,1111122' 
NDBC,ioos:station:NOAA.NDBC:VENF1:1,2010-01-10T02:00:00Z,27.0720,-82.4530,11.6,9.8,10.0,,'1111122,1111122,1111122' 
NDBC,ioos:station:NOAA.NDBC:VENF1:1,2010-01-10T03:00:00Z,27.0720,-82.4530,11.6,10.8,360.0,,'1111122,1111122,1111122' 
NDBC,ioos:station:NOAA.NDBC:VENF1:1,2010-01-10T04:00:00Z,27.0720,-82.4530,11.6,11.3,360.0,,'1111122,1111122,1111122' 
NDBC,ioos:station:NOAA.NDBC:VENF1:1,2010-01-10T05:00:00Z,27.0720,-82.4530,11.6,11.8,10.0,,'1111122,1111122,1111122' 
NDBC,ioos:station:NOAA.NDBC:VENF1:1,2010-01-10T06:00:00Z,27.0720,-82.4530,11.6,10.3,360.0,,'1111122,1111122,1111122' 
NDBC,ioos:station:NOAA.NDBC:VENF1:1,2010-01-10T07:00:00Z,27.0720,-82.4530,11.6,11.8,350.0,,'1111122,1111122,1111122' 
NDBC,ioos:station:NOAA.NDBC:VENF1:1,2010-01-10T08:00:00Z,27.0720,-82.4530,11.6,13.9,340.0,,'1111122,1111122,1111122' 
NDBC,ioos:station:NOAA.NDBC:VENF1:1,2010-01-10T09:00:00Z,27.0720,-82.4530,11.6,12.3,360.0,,'1111122,1111122,1111122' 
NDBC,ioos:station:NOAA.NDBC:VENF1:1,2010-01-10T10:00:00Z,27.0720,-82.4530,11.6,10.8,10.0,,'1111122,1111122,1111122' 
NDBC,ioos:station:NOAA.NDBC:VENF1:1,2010-01-10T11:00:00Z,27.0720,-82.4530,11.6,12.3,10.0,,'1111122,1111122,1111122' 
NDBC,ioos:station:NOAA.NDBC:VENF1:1,2010-01-10T12:00:00Z,27.0720,-82.4530,11.6,11.8,10.0,,'1111122,1111122,1111122' 
NDBC,ioos:station:NOAA.NDBC:VENF1:1,2010-01-10T13:00:00Z,27.0720,-82.4530,11.6,12.9,20.0,,'1111122,1111122,1111122' 
NDBC,ioos:station:NOAA.NDBC:VENF1:1,2010-01-10T14:00:00Z,27.0720,-82.4530,11.6,11.8,30.0,,'1111122,1111122,1111122' 
NDBC,ioos:station:NOAA.NDBC:VENF1:1,2010-01-10T15:00:00Z,27.0720,-82.4530,11.6,11.8,30.0,,'1111122,1111122,1111122' 
NDBC,ioos:station:NOAA.NDBC:VENF1:1,2010-01-10T16:00:00Z,27.0720,-82.4530,11.6,11.3,20.0,,'1111122,1111122,1111122' 
NDBC,ioos:station:NOAA.NDBC:VENF1:1,2010-01-10T17:00:00Z,27.0720,-82.4530,11.6,10.3,10.0,,'1111122,1111122,1111122' 
NDBC,ioos:station:NOAA.NDBC:VENF1:1,2010-01-10T18:00:00Z,27.0720,-82.4530,11.6,11.3,30.0,,'1111122,1111122,1111122' 
NDBC,ioos:station:NOAA.NDBC:VENF1:1,2010-01-10T19:00:00Z,27.0720,-82.4530,11.6,12.3,10.0,,'1111122,1111122,1111122' 
NDBC,ioos:station:NOAA.NDBC:VENF1:1,2010-01-10T20:00:00Z,27.0720,-82.4530,11.6,12.9,10.0,,'1111122,1111122,1111122' 
NDBC,ioos:station:NOAA.NDBC:VENF1:1,2010-01-10T21:00:00Z,27.0720,-82.4530,11.6,13.4,360.0,,'1111122,1111122,1111122' 
NDBC,ioos:station:NOAA.NDBC:VENF1:1,2010-01-10T22:00:00Z,27.0720,-82.4530,11.6,13.4,10.0,,'1111122,1111122,1111122' 
NDBC,ioos:station:NOAA.NDBC:VENF1:1,2010-01-10T23:00:00Z,27.0720,-82.4530,11.6,9.8,10.0,,'1111122,1111122,1111122' 
NDBC,ioos:station:NOAA.NDBC:VENF1:1,2010-01-11T00:00:00Z,27.0720,-82.4530,11.6,12.9,10.0,,'1111122,1111122,1111122' 
NDBC,ioos:station:NOAA.NDBC:VENF1:1,2010-01-11T04:00:00Z,27.0720,-82.4530,11.6,10.8,10.0,,'1111122,1111122,1111122' 
NDBC,ioos:station:NOAA.NDBC:VENF1:1,2010-01-11T05:00:00Z,27.0720,-82.4530,11.6,12.3,10.0,,'1111122,1111122,1111122' 
NDBC,ioos:station:NOAA.NDBC:VENF1:1,2010-01-11T06:00:00Z,27.0720,-82.4530,11.6,10.3,360.0,,'1111122,1111122,1111122' 
NDBC,ioos:station:NOAA.NDBC:VENF1:1,2010-01-11T07:00:00Z,27.0720,-82.4530,11.6,12.9,20.0,,'1111122,1111122,1111122' 
NDBC,ioos:station:NOAA.NDBC:VENF1:1,2010-01-11T08:00:00Z,27.0720,-82.4530,11.6,10.8,20.0,,'1111122,1111122,1111122' 
NDBC,ioos:station:NOAA.NDBC:VENF1:1,2010-01-11T09:00:00Z,27.0720,-82.4530,11.6,9.3,20.0,,'1111122,1111122,1111122' 
NDBC,ioos:station:NOAA.NDBC:VENF1:1,2010-01-11T10:00:00Z,27.0720,-82.4530,11.6,8.7,30.0,,'1111122,1111122,1111122' 
NDBC,ioos:station:NOAA.NDBC:VENF1:1,2010-01-11T11:00:00Z,27.0720,-82.4530,11.6,9.3,20.0,,'1111122,1111122,1111122' 
NDBC,ioos:station:NOAA.NDBC:VENF1:1,2010-01-11T12:00:00Z,27.0720,-82.4530,11.6,7.7,30.0,,'1111122,1111122,1111122' 
NDBC,ioos:station:NOAA.NDBC:VENF1:1,2010-01-11T13:00:00Z,27.0720,-82.4530,11.6,7.7,40.0,,'1111122,1111122,1111122' 
NDBC,ioos:station:NOAA.NDBC:VENF1:1,2010-01-11T14:00:00Z,27.0720,-82.4530,11.6,7.7,40.0,,'1111122,1111122,1111122' 
NDBC,ioos:station:NOAA.NDBC:VENF1:1,2010-01-11T15:00:00Z,27.0720,-82.4530,11.6,8.2,30.0,,'1111122,1111122,1111122' 
NDBC,ioos:station:NOAA.NDBC:VENF1:1,2010-01-11T16:00:00Z,27.0720,-82.4530,11.6,7.7,40.0,,'1111122,1111122,1111122' 
NDBC,ioos:station:NOAA.NDBC:VENF1:1,2010-01-11T17:00:00Z,27.0720,-82.4530,11.6,7.2,20.0,,'1111122,1111122,1111122' 
NDBC,ioos:station:NOAA.NDBC:VENF1:1,2010-01-11T18:00:00Z,27.0720,-82.4530,11.6,7.7,30.0,,'1111122,1111122,1111122' 
NDBC,ioos:station:NOAA.NDBC:VENF1:1,2010-01-11T19:00:00Z,27.0720,-82.4530,11.6,7.7,30.0,,'1111122,1111122,1111122' 
NDBC,ioos:station:NOAA.NDBC:VENF1:1,2010-01-11T20:00:00Z,27.0720,-82.4530,11.6,7.7,30.0,,'1111122,1111122,1111122' 
NDBC,ioos:station:NOAA.NDBC:VENF1:1,2010-01-11T21:00:00Z,27.0720,-82.4530,11.6,8.7,10.0,,'1111122,1111122,1111122' 
NDBC,ioos:station:NOAA.NDBC:VENF1:1,2010-01-11T22:00:00Z,27.0720,-82.4530,11.6,8.2,10.0,,'1111122,1111122,1111122' 
NDBC,ioos:station:NOAA.NDBC:VENF1:1,2010-01-11T23:00:00Z,27.0720,-82.4530,11.6,8.2,10.0,,'1111122,1111122,1111122' 
NDBC,ioos:station:NOAA.NDBC:VENF1:1,2010-01-12T00:00:00Z,27.0720,-82.4530,11.6,8.2,10.0,,'1111122,1111122,1111122' 
NDBC,ioos:station:NOAA.NDBC:VENF1:1,2010-01-12T01:00:00Z,27.0720,-82.4530,11.6,7.7,10.0,,'1111122,1111122,1111122' 
NDBC,ioos:station:NOAA.NDBC:VENF1:1,2010-01-12T02:00:00Z,27.0720,-82.4530,11.6,7.7,10.0,,'1111122,1111122,1111122' 
NDBC,ioos:station:NOAA.NDBC:VENF1:1,2010-01-12T03:00:00Z,27.0720,-82.4530,11.6,8.7,20.0,,'1111122,1111122,1111122' 
NDBC,ioos:station:NOAA.NDBC:VENF1:1,2010-01-12T04:00:00Z,27.0720,-82.4530,11.6,7.7,20.0,,'1111122,1111122,1111122' 
NDBC,ioos:station:NOAA.NDBC:VENF1:1,2010-01-12T05:00:00Z,27.0720,-82.4530,11.6,7.2,20.0,,'1111122,1111122,1111122' 
NDBC,ioos:station:NOAA.NDBC:VENF1:1,2010-01-12T06:00:00Z,27.0720,-82.4530,11.6,6.2,10.0,,'1111122,1111122,1111122' 
NDBC,ioos:station:NOAA.NDBC:VENF1:1,2010-01-12T07:00:00Z,27.0720,-82.4530,11.6,6.7,40.0,,'1111122,1111122,1111122' 
NDBC,ioos:station:NOAA.NDBC:VENF1:1,2010-01-12T08:00:00Z,27.0720,-82.4530,11.6,5.7,10.0,,'1111122,1111122,1111122' 
NDBC,ioos:station:NOAA.NDBC:VENF1:1,2010-01-12T09:00:00Z,27.0720,-82.4530,11.6,6.7,10.0,,'1111122,1111122,1111122' 
NDBC,ioos:station:NOAA.NDBC:VENF1:1,2010-01-12T10:00:00Z,27.0720,-82.4530,11.6,3.6,10.0,,'1111122,1111122,1111122' 
NDBC,ioos:station:NOAA.NDBC:VENF1:1,2010-01-12T11:00:00Z,27.0720,-82.4530,11.6,3.6,340.0,,'1111122,1111122,1111122' 
NDBC,ioos:station:NOAA.NDBC:VENF1:1,2010-01-12T12:00:00Z,27.0720,-82.4530,11.6,5.7,360.0,,'1111122,1111122,1111122' 
NDBC,ioos:station:NOAA.NDBC:VENF1:1,2010-01-12T13:00:00Z,27.0720,-82.4530,11.6,5.1,10.0,,'1111122,1111122,1111122' 
NDBC,ioos:station:NOAA.NDBC:VENF1:1,2010-01-12T14:00:00Z,27.0720,-82.4530,11.6,4.6,10.0,,'1111122,1111122,1111122' 
NDBC,ioos:station:NOAA.NDBC:VENF1:1,2010-01-12T15:00:00Z,27.0720,-82.4530,11.6,5.1,360.0,,'1111122,1111122,1111122' 
NDBC,ioos:station:NOAA.NDBC:VENF1:1,2010-01-12T16:00:00Z,27.0720,-82.4530,11.6,5.1,10.0,,'1111122,1111122,1111122' 
NDBC,ioos:station:NOAA.NDBC:VENF1:1,2010-01-12T17:00:00Z,27.0720,-82.4530,11.6,5.7,350.0,,'1111122,1111122,1111122' 
NDBC,ioos:station:NOAA.NDBC:VENF1:1,2010-01-12T18:00:00Z,27.0720,-82.4530,11.6,4.6,320.0,,'1111122,1111122,1111122' 
NDBC,ioos:station:NOAA.NDBC:VENF1:1,2010-01-12T19:00:00Z,27.0720,-82.4530,11.6,5.7,350.0,,'1111122,1111122,1111122' 
NDBC,ioos:station:NOAA.NDBC:VENF1:1,2010-01-12T20:00:00Z,27.0720,-82.4530,11.6,5.1,360.0,,'1111122,1111122,1111122' 
NDBC,ioos:station:NOAA.NDBC:VENF1:1,2010-01-12T21:00:00Z,27.0720,-82.4530,11.6,6.7,360.0,,'1111122,1111122,1111122' 
NDBC,ioos:station:NOAA.NDBC:VENF1:1,2010-01-12T22:00:00Z,27.0720,-82.4530,11.6,6.7,350.0,,'1111122,1111122,1111122' 
NDBC,ioos:station:NOAA.NDBC:VENF1:1,2010-01-12T23:00:00Z,27.0720,-82.4530,11.6,4.6,50.0,,'1111122,1111122,1111122' 
NDBC,ioos:station:NOAA.NDBC:VENF1:1,2010-01-13T00:00:00Z,27.0720,-82.4530,11.6,3.1,30.0,,'1111122,1111122,1111122' 
NDBC,ioos:station:NOAA.NDBC:VENF1:1,2010-01-13T01:00:00Z,27.0720,-82.4530,11.6,2.6,40.0,,'1111122,1111122,1111122' 
NDBC,ioos:station:NOAA.NDBC:VENF1:1,2010-01-13T02:00:00Z,27.0720,-82.4530,11.6,6.7,360.0,,'1111122,1111122,1111122' 
NDBC,ioos:station:NOAA.NDBC:VENF1:1,2010-01-13T03:00:00Z,27.0720,-82.4530,11.6,3.1,40.0,,'1111122,1111122,1111122' 
NDBC,ioos:station:NOAA.NDBC:VENF1:1,2010-01-13T04:00:00Z,27.0720,-82.4530,11.6,6.7,60.0,,'1111122,1111122,1111122' 
NDBC,ioos:station:NOAA.NDBC:VENF1:1,2010-01-13T05:00:00Z,27.0720,-82.4530,11.6,5.1,60.0,,'1111122,1111122,1111122' 
NDBC,ioos:station:NOAA.NDBC:VENF1:1,2010-01-13T06:00:00Z,27.0720,-82.4530,11.6,5.1,60.0,,'1111122,1111122,1111122' 
NDBC,ioos:station:NOAA.NDBC:VENF1:1,2010-01-13T07:00:00Z,27.0720,-82.4530,11.6,6.2,50.0,,'1111122,1111122,1111122' 
NDBC,ioos:station:NOAA.NDBC:VENF1:1,2010-01-13T08:00:00Z,27.0720,-82.4530,11.6,5.1,50.0,,'1111122,1111122,1111122' 
NDBC,ioos:station:NOAA.NDBC:VENF1:1,2010-01-13T09:00:00Z,27.0720,-82.4530,11.6,4.6,50.0,,'1111122,1111122,1111122' 
NDBC,ioos:station:NOAA.NDBC:VENF1:1,2010-01-13T10:00:00Z,27.0720,-82.4530,11.6,5.1,40.0,,'1111122,1111122,1111122' 
NDBC,ioos:station:NOAA.NDBC:VENF1:1,2010-01-13T11:00:00Z,27.0720,-82.4530,11.6,5.1,50.0,,'1111122,1111122,1111122' 
NDBC,ioos:station:NOAA.NDBC:VENF1:1,2010-01-13T12:00:00Z,27.0720,-82.4530,11.6,5.1,60.0,,'1111122,1111122,1111122' 
NDBC,ioos:station:NOAA.NDBC:VENF1:1,2010-01-13T13:00:00Z,27.0720,-82.4530,11.6,6.7,50.0,,'1111122,1111122,1111122' 
NDBC,ioos:station:NOAA.NDBC:VENF1:1,2010-01-13T14:00:00Z,27.0720,-82.4530,11.6,7.2,60.0,,'1111122,1111122,1111122' 
NDBC,ioos:station:NOAA.NDBC:VENF1:1,2010-01-13T15:00:00Z,27.0720,-82.4530,11.6,6.2,50.0,,'1111122,1111122,1111122' 
NDBC,ioos:station:NOAA.NDBC:VENF1:1,2010-01-13T16:00:00Z,27.0720,-82.4530,11.6,6.2,70.0,,'1111122,1111122,1111122' 
NDBC,ioos:station:NOAA.NDBC:VENF1:1,2010-01-13T17:00:00Z,27.0720,-82.4530,11.6,7.2,50.0,,'1111122,1111122,1111122' 
NDBC,ioos:station:NOAA.NDBC:VENF1:1,2010-01-13T18:00:00Z,27.0720,-82.4530,11.6,6.7,60.0,,'1111122,1111122,1111122' 
NDBC,ioos:station:NOAA.NDBC:VENF1:1,2010-01-13T19:00:00Z,27.0720,-82.4530,11.6,6.2,40.0,,'1111122,1111122,1111122' 
NDBC,ioos:station:NOAA.NDBC:VENF1:1,2010-01-13T20:00:00Z,27.0720,-82.4530,11.6,6.7,40.0,,'1111122,1111122,1111122' 
NDBC,ioos:station:NOAA.NDBC:VENF1:1,2010-01-13T21:00:00Z,27.0720,-82.4530,11.6,5.7,50.0,,'1111122,1111122,1111122' 
NDBC,ioos:station:NOAA.NDBC:VENF1:1,2010-01-13T22:00:00Z,27.0720,-82.4530,11.6,5.7,40.0,,'1111122,1111122,1111122' 
NDBC,ioos:station:NOAA.NDBC:VENF1:1,2010-01-13T23:00:00Z,27.0720,-82.4530,11.6,6.2,40.0,,'1111122,1111122,1111122' 
NDBC,ioos:station:NOAA.NDBC:VENF1:1,2010-01-14T00:00:00Z,27.0720,-82.4530,11.6,4.6,40.0,,'1111122,1111122,1111122' 
NDBC,ioos:station:NOAA.NDBC:VENF1:1,2010-01-14T01:00:00Z,27.0720,-82.4530,11.6,4.6,40.0,,'1111122,1111122,1111122' 
NDBC,ioos:station:NOAA.NDBC:VENF1:1,2010-01-14T02:00:00Z,27.0720,-82.4530,11.6,5.7,50.0,,'1111122,1111122,1111122' 
NDBC,ioos:station:NOAA.NDBC:VENF1:1,2010-01-14T03:00:00Z,27.0720,-82.4530,11.6,5.1,40.0,,'1111122,1111122,1111122' 
NDBC,ioos:station:NOAA.NDBC:VENF1:1,2010-01-14T04:00:00Z,27.0720,-82.4530,11.6,5.7,50.0,,'1111122,1111122,1111122' 
NDBC,ioos:station:NOAA.NDBC:VENF1:1,2010-01-14T05:00:00Z,27.0720,-82.4530,11.6,4.6,50.0,,'1111122,1111122,1111122' 
NDBC,ioos:station:NOAA.NDBC:VENF1:1,2010-01-14T06:00:00Z,27.0720,-82.4530,11.6,4.6,60.0,,'1111122,1111122,1111122' 
NDBC,ioos:station:NOAA.NDBC:VENF1:1,2010-01-14T07:00:00Z,27.0720,-82.4530,11.6,3.1,70.0,,'1111122,1111122,1111122' 
NDBC,ioos:station:NOAA.NDBC:VENF1:1,2010-01-14T08:00:00Z,27.0720,-82.4530,11.6,2.6,50.0,,'1111122,1111122,1111122' 
NDBC,ioos:station:NOAA.NDBC:VENF1:1,2010-01-14T09:00:00Z,27.0720,-82.4530,11.6,4.1,50.0,,'1111122,1111122,1111122' 
NDBC,ioos:station:NOAA.NDBC:VENF1:1,2010-01-14T10:00:00Z,27.0720,-82.4530,11.6,3.6,50.0,,'1111122,1111122,1111122' 
NDBC,ioos:station:NOAA.NDBC:VENF1:1,2010-01-14T11:00:00Z,27.0720,-82.4530,11.6,5.1,60.0,,'1111122,1111122,1111122' 
NDBC,ioos:station:NOAA.NDBC:VENF1:1,2010-01-14T12:00:00Z,27.0720,-82.4530,11.6,5.7,60.0,,'1111122,1111122,1111122' 
NDBC,ioos:station:NOAA.NDBC:VENF1:1,2010-01-14T13:00:00Z,27.0720,-82.4530,11.6,5.7,40.0,,'1111122,1111122,1111122' 
NDBC,ioos:station:NOAA.NDBC:VENF1:1,2010-01-14T14:00:00Z,27.0720,-82.4530,11.6,6.2,50.0,,'1111122,1111122,1111122' 
NDBC,ioos:station:NOAA.NDBC:VENF1:1,2010-01-14T15:00:00Z,27.0720,-82.4530,11.6,6.2,50.0,,'1111122,1111122,1111122' 
NDBC,ioos:station:NOAA.NDBC:VENF1:1,2010-01-14T16:00:00Z,27.0720,-82.4530,11.6,6.2,70.0,,'1111122,1111122,1111122' 
NDBC,ioos:station:NOAA.NDBC:VENF1:1,2010-01-14T17:00:00Z,27.0720,-82.4530,11.6,8.2,70.0,,'1111122,1111122,1111122' 
NDBC,ioos:station:NOAA.NDBC:VENF1:1,2010-01-14T18:00:00Z,27.0720,-82.4530,11.6,6.2,60.0,,'1111122,1111122,1111122' 
NDBC,ioos:station:NOAA.NDBC:VENF1:1,2010-01-14T19:00:00Z,27.0720,-82.4530,11.6,6.7,60.0,,'1111122,1111122,1111122' 
NDBC,ioos:station:NOAA.NDBC:VENF1:1,2010-01-14T20:00:00Z,27.0720,-82.4530,11.6,6.7,80.0,,'1111122,1111122,1111122' 
NDBC,ioos:station:NOAA.NDBC:VENF1:1,2010-01-14T21:00:00Z,27.0720,-82.4530,11.6,8.7,80.0,,'1111122,1111122,1111122' 
NDBC,ioos:station:NOAA.NDBC:VENF1:1,2010-01-14T22:00:00Z,27.0720,-82.4530,11.6,9.3,80.0,,'1111122,1111122,1111122' 
NDBC,ioos:station:NOAA.NDBC:VENF1:1,2010-01-14T23:00:00Z,27.0720,-82.4530,11.6,8.2,90.0,,'1111122,1111122,1111122' 
NDBC,ioos:station:NOAA.NDBC:VENF1:1,2010-01-15T00:00:00Z,27.0720,-82.4530,11.6,9.8,80.0,,'1111122,1111122,1111122' 
NDBC,ioos:station:NOAA.NDBC:VENF1:1,2010-01-15T01:00:00Z,27.0720,-82.4530,11.6,11.8,90.0,,'1111122,1111122,1111122' 
NDBC,ioos:station:NOAA.NDBC:VENF1:1,2010-01-15T02:00:00Z,27.0720,-82.4530,11.6,11.3,90.0,,'1111122,1111122,1111122' 
NDBC,ioos:station:NOAA.NDBC:VENF1:1,2010-01-15T03:00:00Z,27.0720,-82.4530,11.6,10.3,90.0,,'1111122,1111122,1111122' 
NDBC,ioos:station:NOAA.NDBC:VENF1:1,2010-01-15T04:00:00Z,27.0720,-82.4530,11.6,9.8,80.0,,'1111122,1111122,1111122' 
NDBC,ioos:station:NOAA.NDBC:VENF1:1,2010-01-15T05:00:00Z,27.0720,-82.4530,11.6,10.8,80.0,,'1111122,1111122,1111122' 
NDBC,ioos:station:NOAA.NDBC:VENF1:1,2010-01-15T06:00:00Z,27.0720,-82.4530,11.6,9.3,80.0,,'1111122,1111122,1111122' 
NDBC,ioos:station:NOAA.NDBC:VENF1:1,2010-01-15T07:00:00Z,27.0720,-82.4530,11.6,8.7,80.0,,'1111122,1111122,1111122' 
NDBC,ioos:station:NOAA.NDBC:VENF1:1,2010-01-15T08:00:00Z,27.0720,-82.4530,11.6,9.8,80.0,,'1111122,1111122,1111122' 
NDBC,ioos:station:NOAA.NDBC:VENF1:1,2010-01-15T09:00:00Z,27.0720,-82.4530,11.6,9.3,80.0,,'1111122,1111122,1111122' 
NDBC,ioos:station:NOAA.NDBC:VENF1:1,2010-01-15T10:00:00Z,27.0720,-82.4530,11.6,8.7,70.0,,'1111122,1111122,1111122' 
NDBC,ioos:station:NOAA.NDBC:VENF1:1,2010-01-15T11:00:00Z,27.0720,-82.4530,11.6,8.7,70.0,,'1111122,1111122,1111122' 
NDBC,ioos:station:NOAA.NDBC:VENF1:1,2010-01-15T12:00:00Z,27.0720,-82.4530,11.6,8.7,80.0,,'1111122,1111122,1111122' 
NDBC,ioos:station:NOAA.NDBC:VENF1:1,2010-01-15T13:00:00Z,27.0720,-82.4530,11.6,8.7,90.0,,'1111122,1111122,1111122' 
NDBC,ioos:station:NOAA.NDBC:VENF1:1,2010-01-15T14:00:00Z,27.0720,-82.4530,11.6,8.2,100.0,,'1111122,1111122,1111122' 
NDBC,ioos:station:NOAA.NDBC:VENF1:1,2010-01-15T15:00:00Z,27.0720,-82.4530,11.6,7.7,80.0,,'1111122,1111122,1111122' 
NDBC,ioos:station:NOAA.NDBC:VENF1:1,2010-01-15T16:00:00Z,27.0720,-82.4530,11.6,6.2,90.0,,'1111122,1111122,1111122' 
NDBC,ioos:station:NOAA.NDBC:VENF1:1,2010-01-15T17:00:00Z,27.0720,-82.4530,11.6,6.7,90.0,,'1111122,1111122,1111122' 
NDBC,ioos:station:NOAA.NDBC:VENF1:1,2010-01-15T18:00:00Z,27.0720,-82.4530,11.6,6.7,110.0,,'1111122,1111122,1111122' 
NDBC,ioos:station:NOAA.NDBC:VENF1:1,2010-01-15T19:00:00Z,27.0720,-82.4530,11.6,6.7,100.0,,'1111122,1111122,1111122' 
NDBC,ioos:station:NOAA.NDBC:VENF1:1,2010-01-15T20:00:00Z,27.0720,-82.4530,11.6,7.7,110.0,,'1111122,1111122,1111122' 
NDBC,ioos:station:NOAA.NDBC:VENF1:1,2010-01-15T21:00:00Z,27.0720,-82.4530,11.6,8.7,100.0,,'1111122,1111122,1111122' 
NDBC,ioos:station:NOAA.NDBC:VENF1:1,2010-01-15T22:00:00Z,27.0720,-82.4530,11.6,8.7,110.0,,'1111122,1111122,1111122' 
NDBC,ioos:station:NOAA.NDBC:VENF1:1,2010-01-15T23:00:00Z,27.0720,-82.4530,11.6,8.7,100.0,,'1111122,1111122,1111122' 
NDBC,ioos:station:NOAA.NDBC:VENF1:1,2010-01-16T00:00:00Z,27.0720,-82.4530,11.6,9.3,100.0,,'1111122,1111122,1111122' 
NDBC,ioos:station:NOAA.NDBC:VENF1:1,2010-01-16T01:00:00Z,27.0720,-82.4530,11.6,8.2,100.0,,'1111122,1111122,1111122' 
NDBC,ioos:station:NOAA.NDBC:VENF1:1,2010-01-16T02:00:00Z,27.0720,-82.4530,11.6,9.8,100.0,,'1111122,1111122,1111122' 
NDBC,ioos:station:NOAA.NDBC:VENF1:1,2010-01-16T03:00:00Z,27.0720,-82.4530,11.6,9.8,110.0,,'1111122,1111122,1111122' 
NDBC,ioos:station:NOAA.NDBC:VENF1:1,2010-01-16T04:00:00Z,27.0720,-82.4530,11.6,8.7,110.0,,'1111122,1111122,1111122' 
NDBC,ioos:station:NOAA.NDBC:VENF1:1,2010-01-16T05:00:00Z,27.0720,-82.4530,11.6,8.2,120.0,,'1111122,1111122,1111122' 
NDBC,ioos:station:NOAA.NDBC:VENF1:1,2010-01-16T06:00:00Z,27.0720,-82.4530,11.6,9.8,130.0,,'1111122,1111122,1111122' 
NDBC,ioos:station:NOAA.NDBC:VENF1:1,2010-01-16T07:00:00Z,27.0720,-82.4530,11.6,8.7,120.0,,'1111122,1111122,1111122' 
NDBC,ioos:station:NOAA.NDBC:VENF1:1,2010-01-16T08:00:00Z,27.0720,-82.4530,11.6,9.8,110.0,,'1111122,1111122,1111122' 
NDBC,ioos:station:NOAA.NDBC:VENF1:1,2010-01-16T09:00:00Z,27.0720,-82.4530,11.6,9.8,120.0,,'1111122,1111122,1111122' 
NDBC,ioos:station:NOAA.NDBC:VENF1:1,2010-01-16T10:00:00Z,27.0720,-82.4530,11.6,9.3,120.0,,'1111122,1111122,1111122' 
NDBC,ioos:station:NOAA.NDBC:VENF1:1,2010-01-16T11:00:00Z,27.0720,-82.4530,11.6,8.7,120.0,,'1111122,1111122,1111122' 
NDBC,ioos:station:NOAA.NDBC:VENF1:1,2010-01-16T12:00:00Z,27.0720,-82.4530,11.6,8.2,120.0,,'1111122,1111122,1111122' 
NDBC,ioos:station:NOAA.NDBC:VENF1:1,2010-01-16T13:00:00Z,27.0720,-82.4530,11.6,8.2,110.0,,'1111122,1111122,1111122' 
NDBC,ioos:station:NOAA.NDBC:VENF1:1,2010-01-16T14:00:00Z,27.0720,-82.4530,11.6,8.7,120.0,,'1111122,1111122,1111122' 
NDBC,ioos:station:NOAA.NDBC:VENF1:1,2010-01-16T15:00:00Z,27.0720,-82.4530,11.6,8.2,150.0,,'1111122,1111122,1111122' 
NDBC,ioos:station:NOAA.NDBC:VENF1:1,2010-01-16T16:00:00Z,27.0720,-82.4530,11.6,9.8,140.0,,'1111122,1111122,1111122' 
NDBC,ioos:station:NOAA.NDBC:VENF1:1,2010-01-16T17:00:00Z,27.0720,-82.4530,11.6,9.8,140.0,,'1111122,1111122,1111122' 
NDBC,ioos:station:NOAA.NDBC:VENF1:1,2010-01-16T18:00:00Z,27.0720,-82.4530,11.6,8.7,150.0,,'1111122,1111122,1111122' 
NDBC,ioos:station:NOAA.NDBC:VENF1:1,2010-01-16T19:00:00Z,27.0720,-82.4530,11.6,9.8,150.0,,'1111122,1111122,1111122' 
NDBC,ioos:station:NOAA.NDBC:VENF1:1,2010-01-16T20:00:00Z,27.0720,-82.4530,11.6,10.3,140.0,,'1111122,1111122,1111122' 
NDBC,ioos:station:NOAA.NDBC:VENF1:1,2010-01-16T21:00:00Z,27.0720,-82.4530,11.6,8.2,140.0,,'1111122,1111122,1111122' 
NDBC,ioos:station:NOAA.NDBC:VENF1:1,2010-01-16T22:00:00Z,27.0720,-82.4530,11.6,8.7,130.0,,'1111122,1111122,1111122' 
NDBC,ioos:station:NOAA.NDBC:VENF1:1,2010-01-16T23:00:00Z,27.0720,-82.4530,11.6,9.3,130.0,,'1111122,1111122,1111122' 
NDBC,ioos:station:NOAA.NDBC:VENF1:1,2010-01-17T00:00:00Z,27.0720,-82.4530,11.6,8.7,140.0,,'1111122,1111122,1111122' 
NDBC,ioos:station:NOAA.NDBC:VENF1:1,2010-01-17T01:00:00Z,27.0720,-82.4530,11.6,9.8,140.0,,'1111122,1111122,1111122' 
NDBC,ioos:station:NOAA.NDBC:VENF1:1,2010-01-17T02:00:00Z,27.0720,-82.4530,11.6,10.8,150.0,,'1111122,1111122,1111122' 
NDBC,ioos:station:NOAA.NDBC:VENF1:1,2010-01-17T03:00:00Z,27.0720,-82.4530,11.6,10.3,160.0,,'1111122,1111122,1111122' 
NDBC,ioos:station:NOAA.NDBC:VENF1:1,2010-01-17T04:00:00Z,27.0720,-82.4530,11.6,10.3,170.0,,'1111122,1111122,1111122' 
NDBC,ioos:station:NOAA.NDBC:VENF1:1,2010-01-17T05:00:00Z,27.0720,-82.4530,11.6,9.8,170.0,,'1111122,1111122,1111122' 
NDBC,ioos:station:NOAA.NDBC:VENF1:1,2010-01-17T06:00:00Z,27.0720,-82.4530,11.6,6.7,240.0,,'1111122,1111122,1111122' 
NDBC,ioos:station:NOAA.NDBC:VENF1:1,2010-01-17T07:00:00Z,27.0720,-82.4530,11.6,3.6,240.0,,'1111122,1111122,1111122' 
NDBC,ioos:station:NOAA.NDBC:VENF1:1,2010-01-17T08:00:00Z,27.0720,-82.4530,11.6,3.6,180.0,,'1111122,1111122,1111122' 
NDBC,ioos:station:NOAA.NDBC:VENF1:1,2010-01-17T09:00:00Z,27.0720,-82.4530,11.6,5.1,190.0,,'1111122,1111122,1111122' 
NDBC,ioos:station:NOAA.NDBC:VENF1:1,2010-01-17T10:00:00Z,27.0720,-82.4530,11.6,5.1,190.0,,'1111122,1111122,1111122' 
NDBC,ioos:station:NOAA.NDBC:VENF1:1,2010-01-17T11:00:00Z,27.0720,-82.4530,11.6,4.6,230.0,,'1111122,1111122,1111122' 
NDBC,ioos:station:NOAA.NDBC:VENF1:1,2010-01-17T12:00:00Z,27.0720,-82.4530,11.6,7.2,230.0,,'1111122,1111122,1111122' 
NDBC,ioos:station:NOAA.NDBC:VENF1:1,2010-01-17T13:00:00Z,27.0720,-82.4530,11.6,4.1,240.0,,'1111122,1111122,1111122' 
NDBC,ioos:station:NOAA.NDBC:VENF1:1,2010-01-17T14:00:00Z,27.0720,-82.4530,11.6,3.6,250.0,,'1111122,1111122,1111122' 
NDBC,ioos:station:NOAA.NDBC:VENF1:1,2010-01-17T15:00:00Z,27.0720,-82.4530,11.6,3.6,260.0,,'1111122,1111122,1111122' 
NDBC,ioos:station:NOAA.NDBC:VENF1:1,2010-01-17T16:00:00Z,27.0720,-82.4530,11.6,3.1,250.0,,'1111122,1111122,1111122' 
NDBC,ioos:station:NOAA.NDBC:VENF1:1,2010-01-17T17:00:00Z,27.0720,-82.4530,11.6,5.7,260.0,,'1111122,1111122,1111122' 
NDBC,ioos:station:NOAA.NDBC:VENF1:1,2010-01-17T18:00:00Z,27.0720,-82.4530,11.6,3.6,260.0,,'1111122,1111122,1111122' 
NDBC,ioos:station:NOAA.NDBC:VENF1:1,2010-01-17T19:00:00Z,27.0720,-82.4530,11.6,4.1,270.0,,'1111122,1111122,1111122' 
NDBC,ioos:station:NOAA.NDBC:VENF1:1,2010-01-17T20:00:00Z,27.0720,-82.4530,11.6,5.7,280.0,,'1111122,1111122,1111122' 
NDBC,ioos:station:NOAA.NDBC:VENF1:1,2010-01-17T21:00:00Z,27.0720,-82.4530,11.6,6.2,280.0,,'1111122,1111122,1111122' 
NDBC,ioos:station:NOAA.NDBC:VENF1:1,2010-01-17T22:00:00Z,27.0720,-82.4530,11.6,6.7,280.0,,'1111122,1111122,1111122' 
NDBC,ioos:station:NOAA.NDBC:VENF1:1,2010-01-17T23:00:00Z,27.0720,-82.4530,11.6,5.7,280.0,,'1111122,1111122,1111122' 
NDBC,ioos:station:NOAA.NDBC:VENF1:1,2010-01-18T00:00:00Z,27.0720,-82.4530,11.6,5.7,270.0,,'1111122,1111122,1111122' 
NDBC,ioos:station:NOAA.NDBC:VENF1:1,2010-01-18T01:00:00Z,27.0720,-82.4530,11.6,5.7,280.0,,'1111122,1111122,1111122' 
NDBC,ioos:station:NOAA.NDBC:VENF1:1,2010-01-18T02:00:00Z,27.0720,-82.4530,11.6,5.7,280.0,,'1111122,1111122,1111122' 
NDBC,ioos:station:NOAA.NDBC:VENF1:1,2010-01-18T03:00:00Z,27.0720,-82.4530,11.6,5.1,290.0,,'1111122,1111122,1111122' 
NDBC,ioos:station:NOAA.NDBC:VENF1:1,2010-01-18T04:00:00Z,27.0720,-82.4530,11.6,4.6,280.0,,'1111122,1111122,1111122' 
NDBC,ioos:station:NOAA.NDBC:VENF1:1,2010-01-18T05:00:00Z,27.0720,-82.4530,11.6,4.6,280.0,,'1111122,1111122,1111122' 
NDBC,ioos:station:NOAA.NDBC:VENF1:1,2010-01-18T06:00:00Z,27.0720,-82.4530,11.6,4.6,360.0,,'1111122,1111122,1111122' 
NDBC,ioos:station:NOAA.NDBC:VENF1:1,2010-01-18T07:00:00Z,27.0720,-82.4530,11.6,4.6,350.0,,'1111122,1111122,1111122' 
NDBC,ioos:station:NOAA.NDBC:VENF1:1,2010-01-18T08:00:00Z,27.0720,-82.4530,11.6,5.1,360.0,,'1111122,1111122,1111122' 
NDBC,ioos:station:NOAA.NDBC:VENF1:1,2010-01-18T09:00:00Z,27.0720,-82.4530,11.6,5.1,340.0,,'1111122,1111122,1111122' 
NDBC,ioos:station:NOAA.NDBC:VENF1:1,2010-01-18T10:00:00Z,27.0720,-82.4530,11.6,6.2,10.0,,'1111122,1111122,1111122' 
NDBC,ioos:station:NOAA.NDBC:VENF1:1,2010-01-18T11:00:00Z,27.0720,-82.4530,11.6,5.1,360.0,,'1111122,1111122,1111122' 
NDBC,ioos:station:NOAA.NDBC:VENF1:1,2010-01-18T12:00:00Z,27.0720,-82.4530,11.6,4.6,360.0,,'1111122,1111122,1111122' 
NDBC,ioos:station:NOAA.NDBC:VENF1:1,2010-01-18T13:00:00Z,27.0720,-82.4530,11.6,4.1,30.0,,'1111122,1111122,1111122' 